Find Meteor

NORAD ID: 6659 Int'l Des: 1973-034 Owner: GUKOSR/GMS Country: SU operational
LEOCIRCULARPOLAR

Current View

Loading 3D Globe...

About Meteor

Meteor (NORAD 6659) is a satellite by GUKOSR/GMS of SU. It operates in LEO, CIRCULAR, POLAR orbit

Upcoming Passes

Passes for default location (London). Set your location on the main map for personalized predictions.

Altitude History

Loading altitude history...

Two-Line Element Set

1 6659U 73034A 26195.13115551 -.00000083 00000-0 -53509-4 0 9997
2 6659 81.1862 219.6601 0026925 330.6209 29.3446 14.10551520731223
Epoch: Jul 14, 2026 • Age: 10 hours

Current Status

Altitude 845.7 km
Apogee / Perigee N/A
Velocity 7.44 km/s
Sub-Earth Point -19.35°S, 84.66°E
Type other

Most Searched